Palmdale - Butte, CA

3:51 AM PDT on September 21, 2019 (GMT -0700)
Palmdale - Butte

Weather History for KGXA - August, 2019

Change the Weather History Date:

Saturday, August 24, 2019

  Actual Average (KPMD) Record (KPMD)
Temperature  
Mean Temperature 78 °F -  
Max Temperature 99 °F 95 °F 107 °F (1985)
Min Temperature 59 °F 60 °F 45 °F (1973)
Cooling Degree Days 14    
Growing Degree Days 28 (Base 50)    
Moisture  
Dew Point 39 °F    
Average Humidity 27    
Maximum Humidity 52    
Minimum Humidity 8    
Precipitation  
Precipitation 0.00 in - - ()
Sea Level Pressure  
Sea Level Pressure 29.89 in    
Wind  
Wind Speed 5 mph (WSW)    
Max Wind Speed 13 mph    
Max Gust Speed 17 mph    
Visibility 10 miles    
Events      
Averages and records for this station are not official NWS values.
T = Trace of Precipitation, MM = Missing Value Source: NWS Daily Summary

Daily Weather History Graph

Daily Weather History Graph

Search for Another Location

Airport or City:

Astronomy

Aug. 24, 2019 Rise Set
Actual Time 6:17 AM PDT 7:27 PM PDT
Civil Twilight 5:51 AM PDT 7:53 PM PDT
Nautical Twilight 5:20 AM PDT 8:24 PM PDT
Astronomical Twilight 4:48 AM PDT 8:56 PM PDT
Moon 12:19 AM PDT (8/24) 2:41 PM PDT (8/24)
Length of Visible Light 14h 01m
Length of Day
13h 09m
Last Quarter, 38% of the Moon is Illuminated
Aug 24
Last Quarter
Aug 30
New
Sep 5
First Quarter
Sep 13
Full
Sep 21
Last Quarter

Hourly Weather History & Observations

Time (PDT) Temp. Dew Point Humidity Pressure Visibility Wind Dir Wind Speed Gust Speed Precip Events Conditions
12:58 AM 64.4 °F - N/A% 29.85 in 10.0 mi SSE 4.6 mph - N/A   Clear
1:58 AM 62.1 °F 38.8 °F 42% 29.86 in 10.0 mi South 5.8 mph - N/A   Clear
2:58 AM 61.3 °F 37.9 °F 42% 29.85 in 10.0 mi South 4.6 mph - N/A   Clear
3:58 AM 60.8 °F 38.7 °F 44% 29.85 in 10.0 mi Calm Calm - N/A   Clear
4:58 AM 60.1 °F 39.6 °F 47% 29.88 in 10.0 mi South 6.9 mph - N/A   Clear
5:58 AM 59.2 °F 41.4 °F 52% 29.89 in 10.0 mi Variable 3.5 mph - N/A   Clear
6:58 AM 62.4 °F 40.6 °F 45% 29.91 in 10.0 mi South 5.8 mph - N/A   Clear
7:58 AM 74.7 °F 47.1 °F 38% 29.92 in 10.0 mi Calm Calm - N/A   Clear
8:58 AM 77.4 °F 47.7 °F 35% 29.93 in 10.0 mi NE 4.6 mph - N/A   Clear
10:58 AM 88.0 °F 46.0 °F 23% 29.92 in 10.0 mi North 4.6 mph - N/A   Clear
11:58 AM 90.9 °F 42.4 °F 19% 29.91 in 10.0 mi North 3.5 mph - N/A   Clear
12:58 PM 93.0 °F 40.8 °F 16% 29.90 in 10.0 mi Variable 4.6 mph - N/A   Clear
1:58 PM 94.3 °F 37.4 °F 14% 29.89 in 10.0 mi Variable 3.5 mph - N/A   Clear
2:58 PM 95.9 °F 32.5 °F 11% 29.87 in 10.0 mi WNW 6.9 mph - N/A   Clear
3:58 PM 98.4 °F 27.0 °F 8% 29.86 in 10.0 mi West 9.2 mph - N/A   Clear
4:20 PM 98.6 °F 33.8 °F 10% 29.86 in 10.0 mi West 11.5 mph 17.3 mph N/A   Clear
4:58 PM 98.1 °F 32.7 °F 10% 29.87 in 10.0 mi Variable 6.9 mph - N/A   Clear
5:58 PM 93.9 °F 40.3 °F 15% 29.88 in 10.0 mi NW 12.7 mph - N/A   Clear
6:58 PM 92.1 °F 34.0 °F 13% 29.88 in 10.0 mi SSE 5.8 mph - N/A   Clear
7:58 PM 84.6 °F 42.4 °F 23% 29.90 in 10.0 mi WNW 9.2 mph - N/A   Clear
8:58 PM 80.4 °F 44.1 °F 28% 29.91 in 10.0 mi WNW 4.6 mph - N/A   Clear
10:58 PM 72.1 °F 40.6 °F 32% 29.93 in 6.0 mi Calm Calm - N/A   Haze
11:58 PM 71.4 °F 41.7 °F 34% 29.94 in 10.0 mi Calm Calm - N/A   Clear